Content
SEND FEEDBACK

Daily
Averages
Monthly
Summary
United States of America

FARMINGTON, MINNESOTA


Home > North America > United States > Minnesota
Elevation: 917 feet     Latitude: 44 40N     Longitude: 093 10W

WEATHER
 
SELECT A DAY
Number of Records: 460,240;   Date Range: 1/1/95 - 8/12/14
 
SHARE

PRINT THIS DATA

[ ← Previous Day ]
WEATHER ALMANAC - JANUARY 31, 2013
[ Next Day → ]
[ °C ]   °F
Weather ElementAverageHighLow
Temperature-0.7 °F6.8 °F (12:28 am)-9.4 °F (10:08 pm)
Dewpoint-7.1 °F1.4 °F (12:28 am)-16.6 °F (10:08 pm)
Humidity74.7 %85 % (2:08 am)66 % (12:48 pm)
Barometer29.99 in30.25 in (11:48 pm)29.75 in (12:28 am)
Wind Speed18.1 mph25.3 mph (4:28 pm)
Wind Gust29.9 mph (4:08 pm)
Weather ElementAverage
Visibility7.1 mi
Wind DirectionWNW (286.8 °)

Weather ElementTotal
Precipitation---
Heating Degree Days66.3 (Base 65)
Averaged from 68 records on January 31, 2013
WEATHER CONDITIONS BREAKOUT
WIND DIRECTION BREAKOUT
WEATHER BY HOUR - JANUARY 31, 2013
[ °C ]   °F
Local TimeTemperatureDewpointHumidityBarometerVisibilityWind DirectionWind SpeedGust SpeedPrecipitationEventsConditions
12:28 AM6.8 °F1.4 °F79 %29.75 in7.0 miWNW (290°)12.7 mph16.1 mphScattered Clouds
12:48 AM6.8 °F1.4 °F79 %29.76 in7.0 miWest (280°)13.8 mph19.6 mphOvercast
1:08 AM6.8 °F1.4 °F79 %29.76 in4.0 miWest (280°)16.1 mphHaze
1:28 AM5.0 °F-0.4 °F78 %29.77 in10.0 miWest (280°)13.8 mph18.4 mphOvercast
1:48 AM5.0 °F-0.4 °F78 %29.77 in10.0 miWNW (290°)13.8 mphOvercast
2:08 AM3.2 °F-0.4 °F85 %29.78 in10.0 miWest (280°)13.8 mphMostly Cloudy
2:28 AM3.2 °F-0.4 °F85 %29.78 in10.0 miWNW (290°)13.8 mphMostly Cloudy
2:48 AM3.2 °F-0.4 °F85 %29.78 in10.0 miWNW (290°)15.0 mph23.0 mphOvercast
3:08 AM3.2 °F-0.4 °F85 %29.78 in10.0 miWNW (290°)17.3 mph23.0 mphOvercast
3:28 AM3.2 °F-2.2 °F78 %29.78 in10.0 miWNW (290°)19.6 mph24.2 mphOvercast
3:48 AM3.2 °F-2.2 °F78 %29.78 in10.0 miWNW (290°)17.3 mphOvercast
4:08 AM3.2 °F-2.2 °F78 %29.79 in7.0 miWNW (290°)19.6 mph23.0 mphOvercast
4:28 AM3.2 °F-2.2 °F78 %29.80 in5.0 miWest (280°)16.1 mphHaze
4:48 AM1.4 °F-2.2 °F85 %29.81 in7.0 miWest (280°)17.3 mphOvercast
5:08 AM1.4 °F-2.2 °F85 %29.81 in7.0 miWNW (290°)16.1 mph20.7 mphOvercast
5:28 AM1.4 °F-2.2 °F85 %29.82 in5.0 miWNW (290°)16.1 mphHaze
5:48 AM1.4 °F-2.2 °F85 %29.83 in7.0 miWest (280°)15.0 mphOvercast
6:08 AM1.4 °F-4.0 °F78 %29.84 in5.0 miWest (280°)16.1 mph21.9 mphHaze
6:28 AM1.4 °F-4.0 °F78 %29.85 in5.0 miWest (280°)17.3 mph21.9 mphHaze
6:48 AM1.4 °F-4.0 °F78 %29.86 in5.0 miWNW (290°)16.1 mph19.6 mphHaze
7:08 AM1.4 °F-4.0 °F78 %29.87 in4.0 miWest (280°)17.3 mphHaze
7:28 AM-0.4 °F-5.8 °F78 %29.88 in4.0 miWNW (290°)18.4 mph23.0 mphHaze
7:48 AM-0.4 °F-5.8 °F78 %29.88 in3.0 miWest (280°)17.3 mph25.3 mphHaze
8:08 AM-0.4 °F-5.8 °F78 %29.89 in4.0 miWest (280°)16.1 mph20.7 mphHaze
8:28 AM-0.4 °F-5.8 °F78 %29.90 in3.0 miWNW (290°)17.3 mphHaze
8:48 AM-0.4 °F-5.8 °F78 %29.91 in4.0 miWNW (290°)18.4 mph24.2 mphHaze
9:13 AM-0.4 °F-7.6 °F72 %29.93 in5.0 miWNW (290°)17.3 mph25.3 mphHaze
9:28 AM-0.4 °F-7.6 °F72 %29.94 in5.0 miWest (280°)19.6 mph25.3 mphHaze
9:48 AM-0.4 °F-7.6 °F72 %29.96 in5.0 miWNW (290°)18.4 mphHaze
10:08 AM-0.4 °F-7.6 °F72 %29.96 in5.0 miWest (280°)23.0 mph26.5 mphHaze
10:28 AM-0.4 °F-7.6 °F72 %29.97 in4.0 miWNW (290°)21.9 mph25.3 mphHaze
10:48 AM-0.4 °F-7.6 °F72 %29.98 in7.0 miWest (280°)18.4 mph27.6 mphClear
11:08 AM-0.4 °F-7.6 °F72 %29.99 in4.0 miWNW (290°)20.7 mph26.5 mphHaze
11:27 AM-0.4 °F-7.6 °F72 %29.99 in5.0 miWest (280°)17.3 mph24.2 mphHaze
11:48 AM-0.4 °F-7.6 °F72 %30.00 in3.0 miWest (280°)18.4 mphHaze
12:08 PM-0.4 °F-7.6 °F72 %30.00 in2.0 miWest (280°)20.7 mph26.5 mphHaze
12:27 PM1.4 °F-5.8 °F72 %30.00 in2.0 miWest (280°)20.7 mph25.3 mphHaze
12:48 PM1.4 °F-7.6 °F66 %30.01 in5.0 miWNW (290°)18.4 mph25.3 mphHaze
1:08 PM1.4 °F-5.8 °F72 %30.02 in3.0 miWest (280°)18.4 mph25.3 mphHaze
1:27 PM1.4 °F-5.8 °F72 %30.02 in2.5 miWest (280°)19.6 mph25.3 mphHaze
1:48 PM1.4 °F-5.8 °F72 %30.03 in3.0 miWNW (300°)19.6 mph24.2 mphHaze
2:08 PM1.4 °F-5.8 °F72 %30.03 in3.0 miWNW (290°)19.6 mph23.0 mphHaze
2:27 PM1.4 °F-5.8 °F72 %30.04 in3.0 miWest (280°)19.6 mph26.5 mphHaze
2:48 PM1.4 °F-7.6 °F66 %30.05 in5.0 miWNW (290°)24.2 mphHaze
3:08 PM1.4 °F-7.6 °F66 %30.06 in10.0 miWNW (300°)19.6 mph25.3 mphClear
3:28 PM-0.4 °F-7.6 °F72 %30.07 in10.0 miWNW (300°)23.0 mph27.6 mphClear
3:48 PM-0.4 °F-7.6 °F72 %30.08 in10.0 miNW (310°)21.9 mph26.5 mphClear
4:08 PM-0.4 °F-9.4 °F66 %30.09 in10.0 miWNW (290°)20.7 mph29.9 mphClear
4:28 PM-0.4 °F-7.6 °F72 %30.10 in7.0 miWNW (290°)25.3 mph29.9 mphClear
4:48 PM-0.4 °F-9.4 °F66 %30.11 in10.0 miWNW (290°)23.0 mph29.9 mphClear
5:08 PM-2.2 °F-9.4 °F71 %30.12 in10.0 miWNW (290°)23.0 mph26.5 mphClear
5:28 PM-2.2 °F-9.4 °F71 %30.13 in10.0 miWNW (290°)23.0 mph27.6 mphClear
6:08 PM-4.0 °F-11.2 °F71 %30.15 in10.0 miWNW (290°)23.0 mph26.5 mphClear
6:28 PM-4.0 °F-11.2 °F71 %30.16 in10.0 miWNW (290°)16.1 mph26.5 mphClear
6:48 PM-5.8 °F-11.2 °F77 %30.17 in10.0 miWNW (290°)17.3 mph26.5 mphClear
7:08 PM-5.8 °F-11.2 °F77 %30.17 in10.0 miWNW (290°)20.7 mph25.3 mphClear
7:28 PM-5.8 °F-13.0 °F71 %30.18 in10.0 miWNW (290°)17.3 mphClear
8:08 PM-7.6 °F-13.0 °F77 %30.20 in10.0 miWNW (290°)16.1 mph21.9 mphClear
8:28 PM-7.6 °F-14.8 °F71 %30.21 in10.0 miWest (280°)16.1 mph20.7 mphClear
8:48 PM-7.6 °F-14.8 °F71 %30.21 in10.0 miWest (280°)17.3 mph24.2 mphClear
9:08 PM-7.6 °F-14.8 °F71 %30.21 in10.0 miWest (280°)17.3 mph21.9 mphClear
9:28 PM-7.6 °F-14.8 °F71 %30.22 in10.0 miWest (280°)16.1 mph20.7 mphClear
9:48 PM-7.6 °F-14.8 °F71 %30.22 in10.0 miWNW (290°)17.3 mphClear
10:08 PM-9.4 °F-16.6 °F71 %30.23 in10.0 miWNW (290°)15.0 mph23.0 mphClear
10:27 PM-9.4 °F-16.6 °F71 %30.23 in10.0 miWNW (290°)18.4 mph23.0 mphClear
11:08 PM-9.4 °F-16.6 °F71 %30.24 in10.0 miWNW (290°)16.1 mph24.2 mphClear
11:27 PM-9.4 °F-16.6 °F71 %30.24 in10.0 miWNW (290°)16.1 mphClear
11:48 PM-9.4 °F-16.6 °F71 %30.25 in10.0 miWest (280°)15.0 mphClear
Hourly data recorded from KLVN, located miles away from Farmington, Minnesota







STORIES FROM OUR PARTNERS